Regional Weather Roundup
Issued by NWS Boston, MA

Home | Current Version | Previous Version | Text Only | Print | Product List | Glossary On
Versions: 1 2 3 4 5 6 7 8 9 10 11 12 13 14 15 16 17 18 19 20 21 22 23 24 25 26 27 28 29 30 31 32 33 34 35 36 37 38 39 40 41 42 43 44 45 46 47 48 49 50
000
ASUS41 KBOX 080810
RWRBOX

REGIONAL WEATHER ROUNDUP
NATIONAL WEATHER SERVICE TAUNTON MA
300 AM EST THU DEC 08 2016

NOTE:  "FAIR" INDICATES FEW OR NO CLOUDS BELOW 12,000 FEET WITH NO
SIGNIFICANT WEATHER AND/OR OBSTRUCTIONS TO VISIBILITY.

MAZALL-080900-
EASTERN MASSACHUSETTS

CITY           SKY/WX    TMP DP  RH WIND       PRES   REMARKS
BOSTON         CLOUDY    39  33  79 W9        29.97S
BEVERLY        CLOUDY    32  31  96 W3        29.95F
LAWRENCE       CLOUDY    32  31  96 S3        29.97S
BEDFORD        CLOUDY    31  29  92 W3        29.95F
BLUE HILL        N/A     33  32  96 W12       29.93F WCI  24
NORWOOD        CLOUDY    31  29  92 CALM      29.96S FOG
MARSHFIELD     PTCLDY    36  36 100 CALM      29.96F
PLYMOUTH       CLOUDY    34  33  96 SW3       29.97S
TAUNTON        CLOUDY    30  29  96 CALM      29.96F FOG
NEW BEDFORD    CLOUDY    34  32  92 CALM      29.96F
$$

MAZALL-080900-
CAPE COD AND THE ISLANDS

CITY           SKY/WX    TMP DP  RH WIND       PRES   REMARKS
FALMOUTH       CLOUDY    36  34  93 MISG      29.97
HYANNIS        CLOUDY    39  34  82 W7        29.95F
CHATHAM        CLOUDY    40  36  86 CALM      29.96F
PROVINCETOWN   CLOUDY    41  34  76 W10       29.96F
NANTUCKET      CLOUDY    41  38  89 CALM      29.96F
MARTHAS VNYRD  CLOUDY    37  35  92 CALM      29.96F FOG
$$

MAZALL-080900-
CENTRAL AND WESTERN MASSACHUSETTS

CITY           SKY/WX    TMP DP  RH WIND       PRES   REMARKS
WORCESTER      PTCLDY    33  30  88 W7        29.92F WCI  27
FITCHBURG      CLOUDY    38  29  70 NW3       29.95S
ORANGE         CLOUDY    27  27 100 CALM      29.94F FOG
SPRINGFIELD    CLOUDY    27  27 100 CALM      29.95S FOG
WESTFIELD      PTCLDY    29  29 100 CALM      29.96F FOG
NORTH ADAMS    PTCLDY    28  27  96 CALM      29.95F FOG
PITTSFIELD     FOG       31  30  96 CALM      29.91F VSB 1/2
$$

RIZALL-080900-
RHODE ISLAND

CITY           SKY/WX    TMP DP  RH WIND       PRES   REMARKS
PROVIDENCE     CLOUDY    36  33  89 W5        29.97F
NEWPORT        CLOUDY    37  35  92 W3        29.97S
BLOCK ISLAND   PTCLDY    39  35  86 NW5       29.97F
SMITHFIELD     CLOUDY    31  31 100 CALM      29.95F FOG
WESTERLY       CLEAR     34  30  85 CALM      29.97F FOG
$$

CTZALL-080900-
CONNECTICUT

CITY           SKY/WX    TMP DP  RH WIND       PRES   REMARKS
BRADLEY INTL   FOG       31  30  96 NW3       29.97F VSB 1
HARTFORD       CLEAR     32  32 100 S3        29.98F FOG
BRIDGEPORT     CLEAR     37  33  85 CALM      29.99
DANBURY        CLEAR     29  27  92 CALM      29.99S
GROTON         CLEAR     38  36  92 N3        29.97F
NEW HAVEN      CLEAR     31  30  96 CALM      29.98F FOG
CHESTER        FAIR      36  34  93 W3        29.97S
MERIDEN        FOG       32  30  92 CALM      29.98F VSB 1/4
WILLIMANTIC    FOG       34  33  96 CALM      29.97F VSB 1/4
OXFORD         MOCLDY    32  28  86 CALM      29.97F
$$

MEZ002-015-021-024-NHZ003-005-008-011-012-014-VTZ005-008-080900-
NORTHERN NEW ENGLAND

CITY           SKY/WX    TMP DP  RH WIND       PRES   REMARKS
PORTLAND ME    MOCLDY    29  28  96 W3        29.93S FOG
BANGOR ME      FOG       30  30 100 CALM      29.91F VSB 3/4
CONCORD NH     CLOUDY    32  29  88 CALM      29.93F FOG
MANCHESTER NH  CLOUDY    32  30  92 S5        29.93F FOG     WCI  27
NASHUA NH      MOCLDY    31  31 100 CALM      29.95F FOG
PORTSMOUTH NH  MOCLDY    32  31  95 W3        29.93S
JAFFREY NH     MOCLDY    31  28  89 S5        29.92F WCI  26
KEENE NH       MOCLDY    28  27  96 CALM      29.94F FOG
BURLINGTON VT  CLOUDY    36  29  75 S3        29.89F
MT. WASHINGTON FOG       12  12 100 W30         N/A  VSB 0   WCI  -9
$$

NYZ052-076-080900-
EASTERN NEW YORK

CITY           SKY/WX    TMP DP  RH WIND       PRES   REMARKS
ALBANY         FOG       34  33  96 S3        29.97F VSB 1/8
NEW YORK CITY  CLOUDY    44  30  57 W8        30.00R
$$

ANZALL-080900-
MARINE OBSERVATIONS

STATION/POSITION TIME  TEMP    WIND        PRES    VSBY  WAVE
                       AIR SEA DIR/SP/G                  HT/PER
                 (UTC) (F)     (DEG/KT/KT) (MB)    (MI)  (FT/S)
BOSTON BUOY      0750   42 50  250/ 12/ 14 1013.1          2/ 6
BUZZARDS BAY     NOT AVBL
NANTUCKET SOUND  NOT AVBL
MASS BAY-STELLWA 0704   42 48  270/ 12/ 16 1013.8F  1 7/8  2/ 6
ISLE OF SHOALS   NOT AVBL
S OF BLOCK IS    0755      53                N/A           5/11
$$

......................KEY.........................
  SKY/WX - SKY CONDITION/PRESENT WEATHER
  TMP    - TEMPERATURE IN FAHRENHEIT
  DWPT   - DEWPOINT IN FAHRENHEIT
  RH     - RELATIVE HUMIDITY IN PERCENT
  WIND   - DIRECTION AND SPEED IN MPH
  PRES   - MEAN SEA LEVEL PRESSURE IN INCHES OF HG
  WCI    - WIND CHILL INDEX
  VSB    - VISIBILITY IN MILES
  HX     - HEAT INDEX
  TC     - TEMPERATURE IN CELSIUS
  VRB    - VARIABLE WIND DIRECTION
  N/A    - NOT AVAILABLE



USA.gov is the U.S. government's official web portal to all federal, state and local government web resources and services.